Location: Huberhof
(49.2050°N, 7.4980°E)
Time: 04:08:47
(UTC+00:00)

Lacrosse 5 - Pass Details

Date: 29 October 2020
Orbit: 716 x 723 km, 57.0° (Epoch: 06 November)

Event Time Altitude Azimuth Distance (km) Brightness Sun altitude
Rises 19:55:08 0° 304° (NW) 3,126 6.1 -36.3°
Reaches altitude 10° 19:57:31 10° 304° (NW) 2,204 5.1 -36.6°
Enters shadow 19:59:23 23° 304° (NW) 1,503 4.0 -36.9°
